Back to catalog

COSMOS 2251 DEB

LostLEO
NORAD 37105·DEBRIS·🇷🇺 Russia

Launched Jun 16, 1993 from Plesetsk Cosmodrome

Loading…

Next Passes (next 24 hours)

TLE

StaleSource: Space-Track

Epoch: Oct 12, 2024, 14:07 UTC

1 37105U 93036BGB 24286.58875525  .00016119  00000-0  57788-2 0  9999
2 37105  73.8778   7.3560 0316645  39.1771 323.1828 14.09540793777990

Track COSMOS 2251 DEB in real time with AllMySat

Download on the App Store